Location: Mahannah Oil Field
(37.4664°N, 96.6003°W)
Time: 22:30:54
(UTC+00:00)

Transit 2A Rocket - Pass Details

Date: 26 January 2021
Orbit: 594 x 909 km, 66.7° (Epoch: 26 February)

Event Time Altitude Azimuth Distance (km) Brightness Sun altitude
Rises 19:34:17 0° 263° (W) 3,296 8.6 32.5°
Reaches altitude 10° 19:38:40 10° 295° (WNW) 2,282 7.5 32.3°
Maximum altitude 19:40:22 11° 315° (NW) 2,148 7.2 32.2°
Drops below altitude 10° 19:42:01 10° 334° (NNW) 2,216 7.1 32.1°
Sets 19:46:06 0° 8° (N) 3,053 7.6 31.9°
